Location: Kerguer�zec
(48.4509°N, 4.7600°W)
Time: 01:33:06
(UTC+00:00)

Cosmos 192 - Pass Details

Date: 09 April 2020
Orbit: 700 x 714 km, 74.0° (Epoch: 03 June)

Event Time Altitude Azimuth Distance (km) Brightness Sun altitude
Rises 20:33:27 0° 339° (NNW) 3,118 8.6 -14.8°
Reaches altitude 10° 20:35:49 10° 342° (NNW) 2,197 7.6 -15.2°
Maximum altitude 20:40:44 64° 64° (ENE) 794 4.4 -15.9°
Enters shadow 20:43:24 27° 138° (SE) 1,361 5.2 -16.2°
